Weather History for Mountain Home, ID

Change the Weather History Date:

Tuesday, December 24, 2013

  Actual Average Record
Temperature  
Mean Temperature 31 °F 29 °F  
Max Temperature 40 °F 37 °F 64 °F (1964)
Min Temperature 22 °F 20 °F -25 °F (1924)
Degree Days  
Heating Degree Days 34 36  
Month to date heating degree days 912 837  
Cooling Degree Days 0 0  
Month to date cooling degree days 0 0  
Moisture  
Dew Point 32 °F    
Average Humidity 95    
Maximum Humidity 100    
Minimum Humidity 65    
Precipitation  
Precipitation 0.01 in 0.04 in 0.65 in (1964)
Month to date precipitation 0.20 1.28  
Sea Level Pressure  
Sea Level Pressure 30.48 in    
Wind  
Wind Speed 14 mph (NW)    
Max Wind Speed 21 mph    
Max Gust Speed 26 mph    
Visibility 10 miles    
Events Rain    
T = Trace of Precipitation, MM = Missing Value Source: NWS Daily Summary

Daily Weather History Graph

Daily Weather History Graph

Search for Another Location

Airport:

Trip Planner

Search our weather history database for the weather conditions in past years. The results will help you decide how hot, cold, wet, or windy it might be!

Date:

Astronomy

Dec. 24, 2013 Rise Set
Actual Time 8:13 AM MST 5:13 PM MST
Civil Twilight 7:40 AM MST 5:45 PM MST
Nautical Twilight 7:04 AM MST 6:21 PM MST
Astronomical Twilight 6:30 AM MST 6:56 PM MST
Moon No Moon Rise 11:59 AM MST (12/24)
Length of Visible Light 10h 05m
Length of Day
9h 00m
Waning Gibbous, 58% of the Moon is Illuminated
Dec 24
Waning Gibbous
Dec 25
Last Quarter
Jan 1
New
Jan 7
First Quarter
Jan 15
Full

Hourly Weather History & Observations

Time (MST) Temp. Windchill Dew Point Humidity Pressure Visibility Wind Dir Wind Speed Gust Speed Precip Events Conditions
12:08 AM 39.2 °F 29.8 °F 39.2 °F 100% 30.28 in 9.0 mi NNW 18.4 mph 26.5 mph N/A Rain Light Rain
12:18 AM 39.2 °F 30.8 °F 39.2 °F 100% 30.28 in 10.0 mi NW 15.0 mph - N/A Rain Light Rain
12:23 AM 37.4 °F 28.9 °F 37.4 °F 100% 30.28 in 10.0 mi NNW 13.8 mph - N/A Rain Light Rain
12:28 AM 39.2 °F 29.8 °F 39.2 °F 100% 30.29 in 10.0 mi NNW 18.4 mph - N/A Rain Light Rain
12:33 AM 39.2 °F 29.3 °F 39.2 °F 100% 30.29 in 10.0 mi NNW 20.7 mph - N/A Rain Light Rain
12:43 AM 39.2 °F 29.3 °F 39.2 °F 100% 30.30 in 10.0 mi NNW 20.7 mph - N/A   Overcast
12:58 AM 37.8 °F 28.0 °F 37.8 °F 100% 30.36 in 10.0 mi NW 18.4 mph - 0.01 in   Overcast
1:18 AM 35.6 °F 26.2 °F 35.6 °F 100% 30.32 in 10.0 mi WNW 15.0 mph - N/A   Overcast
1:38 AM 35.6 °F 26.6 °F 35.6 °F 100% 30.32 in 10.0 mi West 13.8 mph - N/A   Mostly Cloudy
1:53 AM 35.6 °F 27.1 °F 35.6 °F 100% 30.33 in 10.0 mi WNW 12.7 mph - N/A   Partly Cloudy
1:58 AM 34.7 °F 25.9 °F 34.7 °F 100% 30.40 in 10.0 mi WNW 12.7 mph - N/A   Partly Cloudy
2:03 AM 33.8 °F 26.4 °F 33.8 °F 100% 30.34 in 10.0 mi WNW 9.2 mph - N/A   Clear
2:13 AM 33.8 °F 25.8 °F 33.8 °F 100% 30.35 in 10.0 mi WNW 10.4 mph - N/A   Clear
2:58 AM 34.5 °F 24.5 °F 34.3 °F 99% 30.43 in 10.0 mi NW 16.1 mph - N/A   Clear
3:58 AM 33.3 °F 22.8 °F 33.3 °F 100% 30.47 in 10.0 mi WNW 16.1 mph - N/A   Clear
4:58 AM 32.4 °F 21.7 °F 32.2 °F 99% 30.50 in 10.0 mi WNW 16.1 mph - N/A   Clear
5:58 AM 30.6 °F 20.2 °F 30.4 °F 99% 30.52 in 10.0 mi West 13.8 mph - N/A   Clear
6:58 AM 28.9 °F 17.3 °F 28.6 °F 99% 30.53 in 10.0 mi West 16.1 mph - N/A   Clear
7:58 AM 28.0 °F 17.5 °F 27.9 °F 99% 30.56 in 10.0 mi WNW 12.7 mph - N/A   Clear
8:58 AM 28.2 °F 18.9 °F 28.0 °F 99% 30.58 in 10.0 mi NW 10.4 mph - N/A   Clear
9:58 AM 30.7 °F 22.6 °F 30.4 °F 99% 30.60 in 10.0 mi NW 9.2 mph - N/A   Clear
10:58 AM 34.0 °F 26.0 °F 31.8 °F 92% 30.61 in 10.0 mi WNW 10.4 mph - N/A   Clear
11:58 AM 35.6 °F 27.1 °F 30.7 °F 82% 30.59 in 10.0 mi NW 12.7 mph - N/A   Clear
12:58 PM 36.9 °F 29.6 °F 30.9 °F 79% 30.59 in 10.0 mi NW 10.4 mph - N/A   Clear
1:58 PM 38.3 °F 31.4 °F 29.7 °F 71% 30.58 in 10.0 mi NW 10.4 mph - N/A   Clear
2:58 PM 39.0 °F 34.0 °F 29.3 °F 68% 30.57 in 10.0 mi NW 6.9 mph - N/A   Clear
3:58 PM 38.5 °F 32.7 °F 27.7 °F 65% 30.57 in 10.0 mi NW 8.1 mph - N/A   Clear
4:58 PM 35.1 °F 30.1 °F 31.6 °F 87% 30.58 in 10.0 mi NW 5.8 mph - N/A   Clear
5:58 PM 31.6 °F 25.1 °F 31.5 °F 99% 30.60 in 10.0 mi NW 6.9 mph - N/A   Clear
6:58 PM 29.3 °F 21.5 °F 29.1 °F 99% 30.61 in 10.0 mi WNW 8.1 mph - N/A   Clear
7:58 PM 27.0 °F - 26.8 °F 99% 30.62 in 10.0 mi WNW 2.3 mph - N/A   Clear
8:58 PM 27.1 °F 20.7 °F 27.0 °F 99% 30.62 in 10.0 mi West 5.8 mph - N/A   Clear
9:58 PM 26.1 °F - 25.7 °F 99% 30.61 in 10.0 mi NNW 2.3 mph - N/A   Clear
10:58 PM 24.3 °F 19.9 °F 24.3 °F 100% 30.61 in 10.0 mi NNW 3.5 mph - N/A   Clear
11:58 PM 23.2 °F - 23.2 °F 100% 30.63 in 10.0 mi WNW 2.3 mph - N/A   Clear